Location: Pitton
(51.0667°N, 1.7000°W)
Time: 07:07:09
(UTC+00:00)

Cosmos 1602 Rocket - Pass Details

Date: 17 September 2019
Orbit: 603 x 634 km, 82.5° (Epoch: 20 October)

Event Time Altitude Azimuth Distance (km) Brightness Sun altitude
Rises 20:32:44 0° 352° (N) 2,899 7.6 -20.9°
Reaches altitude 10° 20:35:01 10° 356° (N) 1,984 6.6 -21.2°
Maximum altitude 20:39:21 58° 76° (ENE) 718 3.6 -21.8°
Enters shadow 20:39:21 58° 77° (ENE) 718 3.6 -21.8°
